Regional Weather Roundup
Issued by NWS

Home | Current Version | Previous Version | Graphics & Text | Print | Product List | Glossary On
Versions: 1 2 3 4 5 6 7 8 9 10 11 12 13 14 15 16 17 18 19 20 21 22 23 24 25 26 27 28 29 30 31 32 33 34 35 36 37 38 39 40 41 42 43 44 45 46 47 48 49 50
000
ASUS45 KBOU 182107
RWRCO

WEATHER ROUNDUP FOR COLORADO
NATIONAL WEATHER SERVICE DENVER/BOULDER CO
300 PM MDT SAT APR 18 2015

NOTE: "FAIR" INDICATES FEW OR NO CLOUDS BELOW 12000 FEET WITH NO
SIGNIFICANT WEATHER AND/OR OBSTRUCTIONS TO VISIBILITY.

COZ001>005-013-030-031-182200-
...NORTHWEST COLORADO...

CITY           SKY/WX    TMP DP  RH WIND       PRES   REMARKS
CRAIG          SNOW      34  32  92 CALM      29.99R VSB 1/2
HAYDEN         CLOUDY    34  30  86 N3        29.98S
MEEKER         SNOW      35  33  92 CALM      29.99R VSB 1/4
MOUNT WERNER   NOT AVBL
STEAMBOAT SPGS CLOUDY    34  31  87 CALM      29.97S
WALDEN         PTSUNNY   34  28  80 W3        29.95R
$$

COZ006>008-011-182200-
...WEST CENTRAL VALLEYS...

CITY           SKY/WX    TMP DP  RH WIND       PRES   REMARKS
GRAND JUNCTION CLOUDY    43  38  82 SE9       30.00S
MONTROSE       LGT RAIN  39  37  92 W8        30.03R
EAGLE          CLOUDY    37  34  87 CALM      30.00S
RIFLE          HVY SNOW  33  32  96 CALM      30.02R VSB 1/4
DELTA          CLOUDY    40  36  86 CALM      30.03S
NUCLA          CLOUDY    45  36  70 CALM      30.05F
$$

COZ017>023-064>068-182200-
...SOUTHWEST COLORADO...

CITY           SKY/WX    TMP DP  RH WIND       PRES   REMARKS
DURANGO        CLOUDY    49  33  54 W17G29    29.94F
CORTEZ         MOSUNNY   52  38  58 W14G21    30.00F
PAGOSA SPRINGS CLOUDY    41  26  54 W14       29.97S
TELLURIDE      NOT AVBL
WOLF CREEK PAS SNOW      21  21 100 SW15G23   30.01S VSB 1/4 WCI   8
$$

COZ009-010-012-014-032>034-037-058>063-182200-
...CENTRAL COLORADO...

CITY           SKY/WX    TMP DP  RH WIND       PRES   REMARKS
ASPEN          LGT SNOW  33  28  81 N6        29.97R WCI  28
BUENA VISTA    CLOUDY    38  21  52 CALM      29.91S
COPPER MTN     CLOUDY    27  19  74 W18G30    29.96R WCI  13
BERTHOUD PASS  SNOW      19  10  68 N8        29.97S VSB 1/4 WCI   9
COTTONWOOD PAS CLOUDY    36  23  60 E7        29.93S
GUNNISON       CLOUDY    34  27  75 CALM      30.00F
KREMMLING      CLOUDY    41  30  65 W9G17     29.94F
LEADVILLE      CLOUDY    31  19  61 NW5       29.92R WCI  26
MONARCH PASS   CLOUDY    19  16  86 MISG      30.05S
SALIDA         CLOUDY    44  24  45 W14       29.97F
SUNLIGHT       LGT SNOW N/A N/A N/A CALM      30.04S VSB 1
WILKERSON PASS SNOW      23  21  93 CALM      29.96S VSB 1/2
$$

COZ069>075-182200-
...SAN LUIS VALLEY/SANGRE DE CRISTO MOUNTAINS...

CITY           SKY/WX    TMP DP  RH WIND       PRES   REMARKS
ALAMOSA        CLOUDY    42  27  55 SW6       29.91S
LA VETA PASS   CLOUDY    32  18  55 CALM      29.92F
SAGUACHE       PTSUNNY   43  25  49 NW25      29.91F
$$

COZ035-036-038>040-182200-
...NORTHERN COLORADO FRONT RANGE...

CITY           SKY/WX    TMP DP  RH WIND       PRES   REMARKS
DENVER INTL AP PTSUNNY   51  32  48 VRB7      29.86F
DMNS CITY PARK   N/A     51  28  39 E10       29.85F
AURORA         PTSUNNY   50  31  47 N7        29.87F
FRONT RANGE AP PTSUNNY   46  39  76 N9        29.87F
ERIE MUNI ARPT PTSUNNY   52  35  53 NE16G25   29.87F
BOULDER MUN AP PTSUNNY   50  34  53 NE16G23   29.87S
CENTENNIAL     PTSUNNY   46  31  55 N12G20    29.86F
BROOMFIELD     PTSUNNY   54  32  43 VRB5      29.86F
FORT COLLINS   CLOUDY    46  36  66 SW12      29.90S
LONGMONT       CLOUDY    51  34  53 E9        29.89F
$$

COZ041-046-047-076>085-087-088-182200-
...PIKES PEAK/PALMER DIVIDE AND SOUTHERN FOOTHILLS...

CITY           SKY/WX    TMP DP  RH WIND       PRES   REMARKS
COLO. SPRINGS  PTSUNNY   46  32  58 SW18      29.87F THUNDER
A. F. ACADEMY  PTSUNNY   47  26  42 N15G21    29.85F
ELLICOTT       PTSUNNY  N/A N/A N/A W10       29.87R THUNDER
FALCON         PTSUNNY   48  28  46 N10G17    29.88S
FORT CARSON    PTSUNNY   45  34  66 S14       29.85F
LIMON          PTSUNNY   48  34  58 N8        29.85F
MONUMENT HILL  CLOUDY    39  32  75 NE8       29.87F
TRINIDAD       PTSUNNY   54  17  23 N7G20     29.83F
$$

COZ042>045-048>051-090-091-182200-
...NORTHEAST COLORADO...

CITY           SKY/WX    TMP DP  RH WIND       PRES   REMARKS
GREELEY ARPT   CLOUDY    48  36  61 SE8       29.88F
AKRON          CLOUDY    47  40  76 NW7       29.86S
BURLINGTON     PTSUNNY   55  40  56 S6        29.80F
WRAY           MOSUNNY   59  30  33 E13G21    29.81F
STERLING       TSTM      45  41  87 SE16G26   29.86R
HOLYOKE        MOSUNNY   61  45  55 E10       29.81F
FORT MORGAN    CLOUDY    53  37  55 CALM      29.87F
$$

COZ086-089-092>099-182200-
...SOUTHEAST COLORADO...

CITY           SKY/WX    TMP DP  RH WIND       PRES   REMARKS
PUEBLO         CLOUDY    47  34  60 N30G39    29.84S
LA JUNTA       CLOUDY    54  31  41 N16       29.85S
LAMAR          LGT RAIN  55  33  43 W18       29.81F
SPRINGFIELD      N/A     50  36  58 S9        29.84F
$$


USA.gov is the U.S. government's official web portal to all federal, state and local government web resources and services.